SHIJIAN-23 (SJ-23)

Last updated on Thu Oct 30 2025 00:02:52 GMT+0000 (Coordinated Universal Time)

1 55131U 23002A 25302.69054501 .00000166 00000+0 00000+0 0 9995 2 55131 3.1211 81.2424 0000431 287.1745 305.5579 1.00457897 10194
UTC large
Height (km)
Speed (km/s)
/
Latitude / Longitude
Inclination (degrees)
Orbital Period (minutes)
Azimuth
Elevation
Range (km)
Doppler Factor

Next 0 passes for location: London (51.5072 / 0.1276)

Sorry there are no passes over London.